Vertical_Velocity
-1 0 0 -1 -1 -3 -2 -5 -3 -2 -2 -0 0 1 2 -2 -2 -2 -0 8 3 -4 1 0 0 -1 -1 -1 -0 -3 -5 11 7 -1 -2 -4 1 2 3 -1 -1 -1 2 6 -3
-2 -2 -4 -4 -2 -2 -2 -1 -3 -4 -3 -3 -3 0 0 -3 0 -1 6 0 3 2 1 1 -1 -4 -1 -2 2 -4 -2 11 -9 1 -1 3 0 -1 1 -4 1 -4 -0 1 2
-1 0 -3 -1 0 -0 -2 -2 -1 -3 -4 -1 -3 -3 -2 -5 1 9 1 -0 1 -1 2 1 -0 1 -2 -4 7 -6 7 -3 -1 1 6 -6 7 -10 5 6 -12 1 6 3 -1
-6 -1 -2 -1 1 -1 2 -2 -2 -3 -6 -5 1 -2 -3 -8 -7 0 6 1 2 -2 2 -1 -0 -1 -1 -4 -2 -5 5 -4 4 -1 -1 -1 2 1 2 3 -3 3 -3 0 -4
-6 -1 -2 -3 -0 -2 -3 -3 -1 -2 0 -1 -2 -1 -4 -8 6 1 -9 -0 -0 2 2 2 -1 -4 0 1 -0 -4 2 -1 1 -3 3 -4 6 -6 13 -2 -5 -1 -4 7 0
-5 -3 -5 -2 -1 -0 -1 -1 0 1 -2 -0 -5 -1 -7 6 -5 -1 -4 -1 -2 -1 0 5 -1 -2 -2 -0 0 -7 5 -3 1 3 0 -2 3 -13 17 -5 -1 -2 5 -6 6
-2 -3 -3 -2 -2 2 0 2 2 2 -2 2 -2 -5 -10 20 -2 -1 -1 -4 -2 -2 -0 1 2 0 -4 3 -3 8 -5 -5 5 4 1 4 5 -4 -2 10 -3 -3 -1 5 -1
-2 -1 -3 -1 3 -1 0 1 3 -4 1 4 -3 -5 -12 -11 6 -6 2 -1 -0 -2 -3 8 -1 1 -4 -4 3 -0 -7 1 9 3 -4 -3 18 -9 6 -1 2 -0 -1 -0 -1
-2 0 -0 -2 0 -1 -0 0 6 -2 2 2 -0 -3 -3 -6 6 1 -4 1 -7 4 -2 -1 -2 1 -3 -2 -2 -2 9 -5 -8 -2 3 -2 6 -3 2 -1 -1 2 1 -0 -2
-5 -3 -1 -4 -4 -3 -2 -1 11 -3 3 -1 0 -5 10 -4 7 -2 3 3 2 3 -1 -1 -4 -2 -1 3 7 -5 -6 -3 -2 8 -1 -1 10 -11 5 -4 -1 -1 -1 -2 -1
-0 -0 -2 -2 -1 -2 -1 -5 -5 -4 -7 15 -6 7 -2 -9 6 2 2 1 1 1 7 -1 -1 7 -4 1 4 -7 0 2 4 -17 -2 3 -4 7 -5 -3 2 4 -5 -0 -5
-3 -2 -5 -0 -0 -2 -3 -4 -1 -2 -10 -0 2 -3 8 -10 1 2 5 5 2 2 -1 -6 8 -8 0 1 7 -3 2 3 5 -14 -3 4 -3 7 -6 -4 2 2 -4 1 1
-3 -4 -6 -3 -1 3 -5 5 0 -1 -22 25 8 -1 17 -1 6 1 2 6 2 -0 2 -0 -12 0 0 2 0 2 -0 2 -0 -5 11 -7 -1 -4 3 -3 -3 2 0 -0 0
-3 -7 -8 -5 -3 -1 -3 3 2 0 -17 3 -8 4 4 6 -13 5 8 0 -2 3 3 -6 -7 11 -3 2 -3 2 -3 9 -1 -1 -2 1 -14 7 1 1 -6 -1 -1 -1 1
-6 -10 -3 -15 2 -1 2 0 -1 -2 -16 -10 -5 -4 6 4 2 15 6 -5 2 7 1 2 1 1 1 -5 8 -9 8 2 1 -2 -3 4 -15 9 -3 5 -0 2 -5 1 -3
-7 -7 -6 3 -4 -1 -1 0 0 -0 3 -8 -0 1 2 7 -5 6 10 9 -2 3 3 -3 8 -2 -3 9 -6 7 -1 2 -0 -0 -10 12 -3 -6 3 -6 4 -4 1 -2 -2
-6 -2 -6 -7 -2 -3 0 0 3 0 1 -2 1 2 -2 4 -1 10 4 8 4 5 6 -1 6 2 -2 3 -3 -1 1 -2 -6 -0 -5 -2 -5 3 -5 -1 -2 -2 -2 1 0
-3 -4 -1 -0 -4 -4 -5 -6 -2 1 15 -1 11 2 -4 -1 5 4 10 4 2 4 7 3 -2 1 3 -2 2 -3 1 -1 -3 -3 -9 1 -4 -5 3 -5 -2 -2 2 1 1
-2 -1 -6 -5 -4 0 -0 -5 6 20 5 5 16 -1 23 0 2 9 6 11 -2 2 1 6 -6 9 1 0 -2 10 -2 1 -2 -2 -4 -1 -2 -4 5 -2 -4 0 2 -0 -0
1 -0 -4 -5 -2 -2 -1 2 -2 2 1 -4 3 -3 -3 6 19 19 10 -1 5 8 0 4 0 0 -2 -2 -2 -2 3 -2 -0 -3 -1 2 -5 -12 0 -1 -0 -2 1 0 2
-1 -1 -8 -2 0 -1 -1 1 4 -1 -2 -1 -3 -3 -1 28 9 7 -10 4 3 3 5 2 1 2 -4 -0 -3 0 3 1 -1 -2 -1 -4 -3 -4 2 2 -0 -0 -0 2 0
1 -5 1 1 1 2 0 -4 -2 -3 -1 -1 -2 -2 1 21 9 -1 -6 0 3 2 3 3 2 -1 -1 -6 -1 -0 2 -1 -2 -2 -3 -4 6 -2 -3 0 1 3 1 -2 1
-0 -0 -5 2 1 0 -5 0 0 -0 -2 1 1 -1 -1 10 -3 1 -4 1 3 3 3 2 2 -1 0 -4 -0 1 -2 -0 0 -5 -1 -3 1 2 -1 2 -0 2 -2 -1 -2
-5 -0 -5 1 5 2 3 -2 -1 -0 1 -0 0 1 -1 -1 -5 -4 -2 0 3 2 2 1 0 1 -3 -2 -1 -1 -2 -3 -2 -3 2 3 -1 -4 3 -0 1 -1 1 0 2
-5 -2 -0 0 2 -1 2 2 -2 1 -1 -1 -1 -1 -4 -4 -0 -3 2 1 1 2 2 1 2 1 -1 -4 -4 2 1 -3 -0 -3 -4 6 -1 -4 -1 0 2 -1 0 1 -0
-4 -1 -1 3 4 5 6 -1 -3 -3 -1 -1 -0 -2 -3 -3 -2 0 1 2 5 3 3 1 3 1 -3 -2 -2 -1 -1 0 -1 -1 -1 -2 5 -4 1 1 2 -2 1 -1 0
-1 -3 -1 -2 1 4 1 2 -3 -2 -1 -2 -0 -1 1 0 1 1 3 4 2 2 1 -0 -2 -1 1 -3 -3 3 -2 -3 -0 0 -1 0 -2 2 1 2 -2 -1 -1 -0 3
Height
5759 5755 5752 5750 5748 5745 5742 5741 5736 5733 5731 5730 5729 5726 5724 5724 5724 5722 5723 5725 5725 5725 5727 5728 5728 5728 5729 5731 5733 5733 5735 5738 5741 5741 5741 5744 5747 5751 5751 5752 5755 5757 5758 5760 5765
5752 5748 5743 5740 5737 5734 5731 5729 5727 5725 5723 5720 5719 5718 5716 5714 5715 5714 5715 5715 5714 5715 5716 5718 5718 5718 5718 5719 5722 5723 5726 5728 5728 5731 5733 5737 5739 5740 5743 5743 5746 5748 5748 5750 5756
5741 5739 5736 5731 5727 5725 5722 5719 5716 5713 5711 5710 5708 5706 5705 5704 5706 5706 5704 5703 5704 5704 5705 5706 5707 5707 5708 5709 5711 5712 5716 5717 5718 5723 5725 5727 5731 5729 5735 5736 5735 5738 5742 5743 5746
5735 5728 5725 5720 5716 5712 5711 5707 5703 5703 5700 5698 5696 5693 5692 5694 5694 5694 5693 5693 5693 5693 5694 5695 5695 5696 5698 5699 5701 5703 5706 5706 5708 5711 5715 5717 5718 5723 5724 5727 5725 5728 5731 5736 5734
5726 5720 5713 5708 5703 5700 5695 5694 5691 5686 5685 5683 5682 5682 5681 5681 5682 5682 5680 5681 5681 5682 5682 5684 5685 5685 5687 5689 5690 5693 5695 5696 5698 5700 5704 5704 5709 5711 5715 5716 5716 5717 5721 5723 5726
5711 5705 5700 5693 5690 5684 5680 5677 5674 5673 5669 5668 5666 5667 5668 5671 5670 5670 5669 5669 5670 5670 5671 5672 5674 5675 5676 5677 5680 5682 5685 5685 5688 5690 5692 5695 5698 5699 5707 5704 5707 5708 5711 5712 5715
5695 5687 5681 5674 5671 5666 5663 5659 5656 5654 5654 5652 5651 5651 5654 5659 5656 5657 5655 5656 5658 5659 5659 5662 5662 5664 5665 5667 5670 5672 5673 5675 5678 5680 5682 5686 5690 5692 5694 5697 5697 5698 5700 5704 5704
5675 5668 5660 5653 5648 5644 5641 5640 5638 5637 5637 5636 5635 5635 5640 5643 5642 5644 5642 5645 5646 5648 5649 5651 5651 5653 5655 5656 5660 5661 5664 5665 5669 5669 5673 5676 5682 5681 5686 5686 5689 5689 5690 5692 5694
5655 5646 5639 5633 5628 5624 5621 5621 5620 5618 5619 5619 5620 5620 5624 5630 5629 5629 5631 5633 5634 5636 5638 5639 5641 5643 5644 5645 5648 5651 5655 5655 5656 5660 5664 5666 5669 5673 5675 5676 5678 5681 5681 5682 5684
5637 5630 5625 5619 5614 5609 5606 5604 5604 5601 5601 5603 5605 5606 5610 5614 5616 5615 5617 5619 5622 5624 5626 5628 5630 5633 5633 5633 5641 5639 5642 5645 5645 5651 5654 5658 5661 5662 5665 5667 5669 5670 5671 5672 5673
5625 5619 5613 5607 5601 5594 5591 5589 5586 5586 5584 5591 5587 5593 5592 5597 5601 5602 5606 5607 5610 5613 5615 5615 5620 5623 5621 5624 5629 5629 5633 5636 5636 5637 5644 5648 5651 5655 5652 5657 5660 5660 5660 5662 5661
5615 5608 5601 5593 5585 5578 5572 5570 5568 5567 5569 5572 5575 5579 5580 5582 5588 5590 5595 5597 5600 5604 5604 5607 5610 5610 5614 5616 5620 5621 5624 5625 5627 5629 5634 5636 5642 5645 5644 5647 5647 5649 5649 5651 5651
5603 5594 5585 5576 5566 5559 5551 5549 5547 5546 5546 5559 5560 5565 5566 5567 5575 5580 5585 5587 5590 5594 5595 5599 5601 5604 5606 5608 5610 5613 5615 5616 5618 5621 5625 5625 5633 5634 5636 5637 5637 5638 5638 5640 5640
5590 5580 5568 5558 5551 5544 5538 5535 5532 5530 5528 5541 5542 5547 5550 5553 5560 5567 5574 5578 5581 5585 5587 5591 5593 5597 5598 5600 5602 5605 5608 5609 5610 5612 5615 5618 5620 5626 5627 5626 5628 5627 5628 5628 5628
5579 5568 5556 5544 5542 5537 5533 5527 5524 5523 5520 5525 5529 5531 5534 5538 5548 5556 5563 5566 5572 5576 5580 5584 5586 5588 5590 5592 5595 5598 5600 5601 5602 5603 5606 5610 5609 5615 5616 5618 5619 5618 5617 5617 5617
5569 5558 5549 5543 5534 5530 5524 5520 5517 5517 5517 5516 5520 5521 5526 5530 5533 5543 5552 5558 5562 5567 5572 5575 5579 5581 5583 5586 5587 5591 5593 5594 5595 5596 5599 5602 5601 5604 5606 5605 5608 5607 5608 5607 5607
5560 5551 5541 5533 5528 5521 5515 5510 5509 5509 5513 5514 5515 5516 5518 5523 5526 5534 5542 5549 5554 5561 5565 5568 5572 5575 5577 5580 5582 5584 5586 5587 5589 5590 5592 5593 5594 5597 5597 5595 5596 5596 5597 5598 5598
5552 5543 5536 5527 5519 5511 5505 5503 5504 5508 5510 5512 5513 5513 5513 5517 5523 5529 5535 5542 5547 5553 5558 5562 5566 5569 5571 5574 5576 5577 5580 5581 5581 5584 5584 5586 5586 5589 5590 5587 5587 5588 5589 5590 5590
5544 5536 5528 5520 5512 5507 5504 5503 5505 5507 5507 5507 5510 5513 5513 5517 5522 5528 5533 5537 5541 5546 5552 5556 5559 5564 5566 5568 5570 5573 5573 5574 5576 5576 5576 5580 5580 5581 5581 5581 5581 5580 5581 5582 5583
5538 5529 5522 5514 5506 5504 5502 5503 5504 5505 5503 5505 5506 5510 5512 5515 5517 5523 5527 5531 5536 5541 5544 5550 5554 5558 5560 5563 5564 5566 5567 5568 5569 5570 5570 5573 5571 5571 5573 5573 5575 5574 5574 5574 5575
5528 5521 5514 5509 5504 5503 5502 5502 5503 5502 5503 5503 5505 5507 5509 5509 5514 5519 5522 5528 5531 5536 5540 5544 5548 5553 5555 5558 5559 5560 5561 5561 5562 5563 5563 5566 5566 5565 5565 5565 5567 5568 5567 5567 5567
5521 5514 5509 5503 5502 5501 5500 5500 5500 5500 5501 5501 5502 5505 5506 5508 5510 5513 5519 5523 5527 5531 5536 5540 5543 5547 5551 5551 5553 5554 5554 5555 5555 5558 5557 5557 5560 5558 5558 5559 5560 5560 5561 5561 5562
5515 5509 5503 5498 5498 5497 5497 5498 5498 5498 5499 5500 5500 5502 5504 5505 5507 5510 5516 5520 5523 5527 5532 5536 5540 5542 5545 5547 5547 5548 5548 5549 5549 5549 5551 5550 5552 5552 5553 5554 5554 5554 5554 5555 5557
5507 5504 5497 5493 5494 5495 5496 5497 5497 5497 5497 5498 5498 5499 5501 5503 5505 5508 5512 5517 5520 5524 5528 5532 5535 5538 5540 5541 5542 5542 5543 5543 5543 5543 5543 5544 5545 5545 5548 5549 5549 5549 5550 5552 5553
5500 5497 5493 5490 5491 5492 5494 5495 5496 5496 5495 5496 5496 5497 5499 5502 5504 5506 5511 5514 5518 5522 5526 5529 5531 5534 5534 5535 5536 5537 5537 5536 5536 5536 5536 5540 5541 5541 5542 5544 5544 5545 5548 5549 5548
5495 5491 5488 5486 5488 5489 5492 5492 5492 5493 5493 5493 5494 5494 5496 5499 5503 5506 5509 5512 5516 5520 5523 5526 5528 5529 5530 5530 5530 5530 5530 5529 5529 5530 5532 5533 5538 5536 5538 5540 5540 5543 5545 5545 5544
5489 5485 5482 5481 5484 5486 5487 5489 5490 5491 5491 5491 5491 5492 5494 5498 5502 5505 5508 5512 5516 5519 5521 5523 5524 5525 5525 5524 5524 5525 5523 5523 5524 5526 5529 5531 5533 5534 5535 5536 5538 5541 5542 5541 5541